Regional Weather Roundup
Issued by NWS

Home | Current Version | Previous Version | Text Only | Print | Product List | Glossary On
Versions: 1 2 3 4 5 6 7 8 9 10 11 12 13 14 15 16 17 18 19 20 21 22 23 24 25 26 27 28
000
ASUS46 KSEW 261210
RWRWA

WASHINGTON REGIONAL WEATHER ROUNDUP
NATIONAL WEATHER SERVICE SEATTLE WA
500 AM PDT MON SEP 26 2016

NOTE:"FAIR" INDICATES FEW OR NO CLOUDS BELOW 12,000 FEET WITH NO
SIGNIFICANT WEATHER AND/OR OBSTRUCTIONS TO VISIBILITY.

WAZ505-507>509-261300-
SEATTLE, TACOMA, EVERETT, AND VICINITY

CITY           SKY/WX    TMP DP  RH WIND       PRES   REMARKS
EVERETT        PTCLDY    54  50  86 N5        30.17F
6HR MIN TEMP:  53; 6HR MAX TEMP:  57;

BOEING FIELD   PTCLDY    59  51  75 N3        30.15F
6HR MIN TEMP:  59; 6HR MAX TEMP:  63;

RENTON         PTCLDY    58  54  86 NW8       30.15F
6HR MIN TEMP:  58; 6HR MAX TEMP:  63;

SEATAC AIRPORT PTCLDY    57  51  80 N7        30.16F
6HR MIN TEMP:  56; 6HR MAX TEMP:  60;

JBLM-MCCHORD   PTCLDY    49  49  99 VRB1      30.15F
6HR MIN TEMP:  49; 6HR MAX TEMP:  62;

PUYALLUP         N/A     50  50 100 CALM      30.16F
BREMERTON      PTCLDY    55  50  82 NE7       30.18F
6HR MIN TEMP:  55; 6HR MAX TEMP:  63;

JBLM-FT LEWIS  PTCLDY    54  51  89 SE1       30.14F
6HR MIN TEMP:  52; 6HR MAX TEMP:  62;

TACOMA NARROWS PTCLDY    55  51  86 N5        30.16F
6HR MIN TEMP:  55; 6HR MAX TEMP:  61;

$$

WAZ001-503-506-510-514-515-261300-
NORTH INTERIOR

CITY           SKY/WX    TMP DP  RH WIND       PRES   REMARKS
BELLINGHAM     PTCLDY    52  50  93 NW3       30.16F
6HR MIN TEMP:  49; 6HR MAX TEMP:  57;

FRIDAY HARBOR  PTCLDY    56  51  84 N5        30.18F
6HR MIN TEMP:  56; 6HR MAX TEMP:  59;

EASTSOUND      MOCLDY    54  54 100 MISG      30.17S
PORT ANGELES   PTCLDY    53  48  83 SE10      30.17F
6HR MIN TEMP:  50; 6HR MAX TEMP:  56;

EDIZ HOOK      FAIR      52  49  89 S9        30.17F
6HR MIN TEMP:  52; 6HR MAX TEMP:  55;

PORT TOWNSEND  FAIR      55  52  88 VRB3      30.18F
NAS WHIDBEY    PTCLDY    51  47  86 E5        30.20F
6HR MIN TEMP:  49; 6HR MAX TEMP:  54;

ARLINGTON      PTCLDY    54  45  71 CALM      30.18F
6HR MIN TEMP:  52; 6HR MAX TEMP:  57;

BURLINGTON     CLEAR     54  52  94 NW3       30.17S
$$

WAZ020-022-039-040-504-511-512-261300-
SOUTHWEST INTERIOR

CITY           SKY/WX    TMP DP  RH WIND       PRES   REMARKS
SHELTON        PTCLDY    50  46  86 CALM      30.13F
6HR MIN TEMP:  48; 6HR MAX TEMP:  60;

OLYMPIA        PTCLDY    52  49  89 N3        30.15F
6HR MIN TEMP:  51; 6HR MAX TEMP:  58;

CHEHALIS       FAIR      54  52  94 CALM      30.14F
KELSO          CLEAR     55  52  89 CALM      30.11F
6HR MIN TEMP:  55; 6HR MAX TEMP:  68;

VANCOUVER      CLEAR     53  50  89 CALM      30.08S
6HR MIN TEMP:  53; 6HR MAX TEMP:  63;

SCAPPOOSE, OR  CLEAR     54  52  93 SW3       30.07F
6HR MIN TEMP:  53; 6HR MAX TEMP:  68;

PORTLAND, OR   CLEAR     57  53  86 CALM      30.08F
6HR MIN TEMP:  57; 6HR MAX TEMP:  66;

$$

WAZ021-516-517-261300-
WASHINGTON COAST

CITY           SKY/WX    TMP DP  RH WIND       PRES   REMARKS
FORKS          CLEAR     50  48  93 CALM      30.13F
6HR MIN TEMP:  50; 6HR MAX TEMP:  56;

HOQUIAM        PTCLDY    56  52  86 E3        30.12R
6HR MIN TEMP:  56; 6HR MAX TEMP:  65;

ASTORIA, OR    CLEAR     58  55  90 E3        30.06F
6HR MIN TEMP:  58; 6HR MAX TEMP:  63;

$$

WAZ019-023-024-040-518-519-261300-
CASCADE MOUNTAINS AND COLUMBIA GORGE

CITY           SKY/WX    TMP DP  RH WIND       PRES   REMARKS
STAMPEDE PASS  CLEAR     49  45  86 VRB5      30.28F
6HR MIN TEMP:  49; 6HR MAX TEMP:  56;

TROUTDALE, OR  CLEAR     61  56  83 VRB5      30.07F
6HR MIN TEMP:  57; 6HR MAX TEMP:  64;

THE DALLES, OR CLEAR     54  42  64 SE6       30.18S
6HR MIN TEMP:  52; 6HR MAX TEMP:  64;

$$

WAZ026-027-041>044-520-521-261300-
EAST SLOPES

CITY           SKY/WX    TMP DP  RH WIND       PRES   REMARKS
OMAK           CLEAR     51  43  74 N5        30.26S
6HR MIN TEMP:  49; 6HR MAX TEMP:  59;

WENATCHEE      PTCLDY    58  50  75 W3        30.24S
6HR MIN TEMP:  55; 6HR MAX TEMP:  68;

ELLENSBURG     PTCLDY    48  42  80 CALM      30.24F
6HR MIN TEMP:  48; 6HR MAX TEMP:  61;

YAKIMA         PTCLDY    50  44  80 W9        30.22F
6HR MIN TEMP:  50; 6HR MAX TEMP:  57;

$$

WAZ028-034-035-261300-
COLUMBIA BASIN

CITY           SKY/WX    TMP DP  RH WIND       PRES   REMARKS
EPHRATA        PTCLDY    52  45  77 N7        30.23F
6HR MIN TEMP:  52; 6HR MAX TEMP:  63;

MOSES LAKE     PTCLDY    50  41  71 N8        30.24S
6HR MIN TEMP:  50; 6HR MAX TEMP:  57;

PASCO          CLEAR     49  45  86 N7        30.19S
6HR MIN TEMP:  48; 6HR MAX TEMP:  58;

HERMISTON, OR  CLEAR     49  43  80 SE6       30.17S
6HR MIN TEMP:  47; 6HR MAX TEMP:  60;

$$

WAZ036>038-261300-
NORTHEAST WASHINGTON

CITY           SKY/WX    TMP DP  RH WIND       PRES   REMARKS
SPOKANE GEIGER MOCLDY    52  43  71 NE10      30.29S
6HR MIN TEMP:  52; 6HR MAX TEMP:  61;

SPOKANE FELTS  PTCLDY    49  44  83 CALM      30.30S
6HR MIN TEMP:  49; 6HR MAX TEMP:  58;

FAIRCHILD AFB  PTCLDY    49  42  78 E8        30.28F
6HR MIN TEMP:  47; 6HR MAX TEMP:  59;

COEURDALENE,ID NOT AVBL
DEER PARK      PTCLDY    52  42  69 N5        30.30S
6HR MIN TEMP:  46; 6HR MAX TEMP:  54;

$$

WAZ029>033-261300-
SOUTHEAST WASHINGTON

CITY           SKY/WX    TMP DP  RH WIND       PRES   REMARKS
PULLMAN        PTCLDY    57  41  55 E9        30.28F
6HR MIN TEMP:  57; 6HR MAX TEMP:  59;

LEWISTON, ID   CLEAR     57  42  57 E9        30.25F
6HR MIN TEMP:  55; 6HR MAX TEMP:  62;

WALLA WALLA    CLEAR     56  44  64 SE7       30.18F
6HR MIN TEMP:  56; 6HR MAX TEMP:  64;

PENDLETON, OR  CLEAR     54  44  69 CALM      30.18S
6HR MIN TEMP:  51; 6HR MAX TEMP:  59;

$$




USA.gov is the U.S. government's official web portal to all federal, state and local government web resources and services.